User: anonymous   Login
Location: Newark
(41.8083°N, 72.2500°W)
Time: 03:32:28
(UTC+00:00)
Language:

Transit 4A - Orbit

View from above orbital plane
View from above orbital plane
View from above satellite
View from above satellite

Ground track
Ground track

The orbit data is extracted from the following two-line orbital elements,

1 00116U 61015A   21331.57372648 -.00000061  00000-0  11915-4 0  9992
2 00116  66.8107 357.1417 0076039 353.6610   6.3499 13.91803074 65294
Epoch (UTC): 27 November 2021 13:46:09
Eccentricity: 0.0076039
inclination: 66.8107°
perigee height: 867 km
apogee height: 978 km
right ascension of ascending node: 357.1417°
argument of perigee: 353.6610°
revolutions per day: 13.91803074
mean anomaly at epoch: 6.3499°
orbit number at epoch: 6529

The dashed part of the orbit path shows where the satellite is in the earth's shadow,  

DLR